Location: Newark
(51.0500°N, 12.4500°E)
Time: 21:20:07
(UTC+00:00)

Tiros 1 - Pass Details

Date: 21 February 2020
Orbit: 630 x 664 km, 48.4° (Epoch: 09 April)

Event Time Altitude Azimuth Distance (km) Brightness Sun altitude
Rises 05:38:46 0° 274° (W) 2,919 - -6.0°
Exits shadow 05:40:26 - 272° (W) 2,277 9.3 -5.8°
Reaches altitude 10° 05:41:08 10° 270° (W) 2,009 9.0 -5.7°
Maximum altitude 05:45:37 53° 194° (SSW) 773 7.6 -5.0°
Drops below altitude 10° 05:50:07 10° 117° (ESE) 2,010 11.3 -4.3°
Sets 05:52:28 0° 113° (ESE) 2,919 12.7 -3.9°
